Regional Weather Roundup
Issued by NWS

Home | Current Version | Previous Version | Text Only | Print | Product List | Glossary On
Versions: 1 2 3 4 5 6 7 8 9 10 11 12 13 14 15 16 17 18 19 20 21 22 23 24 25 26 27
000
ASUS45 KBOU 061307
RWRCO

WEATHER ROUNDUP FOR COLORADO
NATIONAL WEATHER SERVICE DENVER/BOULDER CO
600 AM MST TUE DEC 06 2016

NOTE: "FAIR" INDICATES FEW OR NO CLOUDS BELOW 12000 FEET WITH NO
SIGNIFICANT WEATHER AND/OR OBSTRUCTIONS TO VISIBILITY.

COZ001>005-013-030-031-061400-
...NORTHWEST COLORADO...

CITY           SKY/WX    TMP DP  RH WIND       PRES   REMARKS
CRAIG          MOCLDY    -4 -11  72 CALM      29.93S
HAYDEN         CLOUDY     1 -11  55 E13       29.90S WCI -16
MEEKER         CLOUDY    10   1  67 CALM      29.90S
MOUNT WERNER   NOT AVBL
STEAMBOAT SPGS CLOUDY    -6 -12  76 NW3       29.90F
WALDEN           N/A    -13 -22  64 E7        29.83F WCI -29
$$

COZ006>008-011-061400-
...WEST CENTRAL VALLEYS...

CITY           SKY/WX    TMP DP  RH WIND       PRES   REMARKS
GRAND JUNCTION FAIR      19   6  57 CALM      29.91F
MONTROSE       FAIR      13   8  81 SE7       29.93F WCI   3
EAGLE          CLOUDY    18   5  57 CALM      29.91S
RIFLE          CLOUDY    21   8  57 CALM      29.92S
DELTA          FAIR      18  10  70 E3        29.93
NUCLA          FAIR      19  12  73 SE6       29.91F WCI  11
$$

COZ017>023-064>068-061400-
...SOUTHWEST COLORADO...

CITY           SKY/WX    TMP DP  RH WIND       PRES   REMARKS
DURANGO        FAIR      19  13  77 E3        29.88S
CORTEZ         FAIR      22  19  89 CALM      29.87S
PAGOSA SPRINGS FAIR      17  13  84 CALM      29.88F
TELLURIDE      CLOUDY    21   4  47 SE3       29.87S
WOLF CREEK PAS FAIR       9   7  92 SW16G22   29.87S WCI  -9
$$

COZ009-010-012-014-032>034-037-058>063-061400-
...CENTRAL COLORADO...

CITY           SKY/WX    TMP DP  RH WIND       PRES   REMARKS
ASPEN          MOCLDY    10   4  76 SW3       29.82F
BUENA VISTA    FAIR      15   3  58 CALM      29.77S
COPPER MTN     CLOUDY     7   0  72 MISG      29.69S
BERTHOUD PASS  LGT SNOW  -2 -13  60 W25G32    29.63R WCI -27
COTTONWOOD PAS FAIR      21   3  45 NW7G16    29.73F WCI  13
GUNNISON       FAIR      -1  -4  87 SE3       29.88S
KREMMLING      LGT SNOW   9   1  72 CALM      29.89F
LEADVILLE      FAIR       6  -1  73 VRB7      29.73F WCI  -6
MONARCH PASS     N/A      5   1  85 SW30G36   29.83S WCI -19
SALIDA         FAIR      14  -2  47 SE12G23   29.88S WCI   1
SUNLIGHT       FAIR       3   0  85 SW13G18   29.79F WCI -14
WILKERSON PASS FAIR       9   1  72 SW10G16   29.74R WCI  -6
$$

COZ069>075-061400-
...SAN LUIS VALLEY/SANGRE DE CRISTO MOUNTAINS...

CITY           SKY/WX    TMP DP  RH WIND       PRES   REMARKS
ALAMOSA        FAIR       1  -2  87 NW5       29.84R WCI  -9
LA VETA PASS   FAIR      18   3  53 N14G24    29.82R WCI   4
SAGUACHE       FAIR      10   3  72 NW12      29.85S WCI  -4
$$

COZ035-036-038>040-061400-
...NORTHERN COLORADO FRONT RANGE...

CITY           SKY/WX    TMP DP  RH WIND       PRES   REMARKS
DENVER INTL AP FAIR       7  -2  66 S10       29.91F WCI  -8
DMNS CITY PARK   N/A     15  -3  46 SE6       29.92F WCI   6
AURORA         PTCLDY     9  -3  60 S9        29.91F WCI  -4
FRONT RANGE AP NOT AVBL
ERIE MUNI ARPT FAIR      14  -3  47 S5        29.93S WCI   6
BOULDER MUN AP FAIR      18   1  49 E5        29.91F WCI  11
CENTENNIAL     FAIR      13  -1  54 SE9       29.90S WCI   1
BROOMFIELD     PTCLDY    16  -2  45 S7        29.91S WCI   6
FORT COLLINS   FAIR      12  -2  52 S7        29.94S WCI   2
LONGMONT       FAIR      11  -1  59 CALM      29.95F
$$

COZ041-046-047-076>085-087-088-061400-
...PIKES PEAK/PALMER DIVIDE AND SOUTHERN FOOTHILLS...

CITY           SKY/WX    TMP DP  RH WIND       PRES   REMARKS
COLO. SPRINGS  FAIR      13   0  56 SE14      29.93R WCI  -2
A. F. ACADEMY  FAIR       4  -6  64 N3        29.89R
SCHRIEVER AFB  NOT AVBL
ELLICOTT       LGT RAIN N/A N/A N/A S6          N/A
FALCON         FAIR       7  -4  61 S7        29.90R WCI  -5
FORT CARSON    FAIR      13  -1  55 S10       29.92R WCI  -1
LIMON          FAIR       2  -1  88 N3        29.96R
MONUMENT HILL  FAIR       9  -6  52 S12       29.87S WCI  -6
TRINIDAD       FAIR       8  -2  63 CALM      29.97R
$$

COZ042>045-048>051-090-091-061400-
...NORTHEAST COLORADO...

CITY           SKY/WX    TMP DP  RH WIND       PRES   REMARKS
GREELEY ARPT   FAIR       9  -3  58 W5        29.98R WCI   1
AKRON          MOCLDY    12   2  64 NW10      29.95S WCI  -1
BURLINGTON     FAIR      11   2  67 NW10      30.01R WCI  -3
WRAY           MOCLDY     9   5  85 MISG      30.02R
STERLING       FAIR       3   0  85 CALM      29.97F
HOLYOKE        FAIR      14   5  67 W8        30.00S WCI   3
FORT MORGAN    MOCLDY     8   2  75 W3        29.98S
$$

COZ086-089-092>099-061400-
...SOUTHEAST COLORADO...

CITY           SKY/WX    TMP DP  RH WIND       PRES   REMARKS
PUEBLO         FAIR       9   1  70 CALM      30.00R
LA JUNTA       FAIR      18   5  57 CALM      30.04R
LAMAR          FAIR      10   3  73 SW6       30.05R WCI   0
SPRINGFIELD      N/A      7   2  80 NW7       30.03R WCI  -5
$$




USA.gov is the U.S. government's official web portal to all federal, state and local government web resources and services.